WA4FG Weather Reports


Display with metric or nautical units.
time (UTC)temp
F
wind
direction
speed
MPH
gust
MPH
rain 1hr
in
rain 24hr
in
rain mn
in
humidity
%
barometer
mb
20260507235746 67 273 0.0 0.0 0.00 0.60 0.28 82 1014.1
20260507235245 68 273 0.0 0.0 0.00 0.60 0.28 83 1014.0
20260507234737 68 273 0.0 0.0 0.00 0.60 0.28 81 1014.1
20260507234243 68 273 0.0 0.0 0.00 0.60 0.28 82 1013.9
20260507233735 68 273 0.0 0.0 0.00 0.60 0.28 83 1013.9
20260507233211 68 273 0.0 0.0 0.00 0.60 0.28 82 1013.9
20260507232649 68 273 0.0 0.0 0.00 0.60 0.28 81 1013.8
20260507232146 68 273 0.0 0.0 0.00 0.60 0.28 80 1013.8
20260507231056 68 273 0.0 0.0 0.00 0.60 0.28 77 1013.8
20260507230554 68 273 0.0 0.0 0.00 0.60 0.28 76 1013.7
20260507230030 68 273 0.0 0.0 0.00 0.60 0.28 80 1013.6
20260507225507 68 273 0.0 0.0 0.00 0.60 0.28 81 1013.6
20260507224944 68 273 0.0 0.0 0.00 0.60 0.28 80 1013.6
20260507223913 69 273 0.0 0.0 0.00 0.60 0.28 80 1013.6
20260507223403 69 273 0.0 0.0 0.00 0.60 0.28 77 1013.6
20260507222834 69 273 0.0 0.0 0.00 0.60 0.28 80 1013.5
20260507221241 69 273 0.0 0.0 0.00 0.60 0.28 76 1013.5
20260507220717 70 273 0.0 0.0 0.00 0.60 0.28 78 1013.5
20260507220158 70 273 0.0 0.0 0.00 0.60 0.28 77 1013.5
20260507213509 70 273 0.0 0.0 0.00 0.61 0.28 71 1013.4
20260507211925 70 273 0.0 0.0 0.00 0.61 0.28 72 1013.3
20260507210858 70 273 0.0 1.0 0.00 0.62 0.28 72 1013.3
20260507210359 70 273 0.0 0.0 0.00 0.62 0.28 72 1013.1
20260507205855 70 273 0.0 0.0 0.00 0.63 0.28 73 1013.1
20260507205355 70 273 0.0 0.0 0.00 0.64 0.28 72 1013.1
20260507204827 70 304 0.0 0.0 0.00 0.71 0.28 74 1013.4
20260507204326 69 305 0.0 0.0 0.00 0.78 0.28 72 1013.4
20260507202239 69 305 0.0 2.0 0.00 0.79 0.28 72 1013.8
20260507201738 69 305 0.0 2.0 0.00 0.79 0.28 74 1013.5
20260507201236 69 302 0.0 0.0 0.00 0.79 0.28 72 1013.7
20260507200720 69 302 0.0 0.0 0.00 0.79 0.28 75 1013.7
20260507200220 69 302 0.0 1.0 0.00 0.79 0.28 73 1013.8
20260507195719 69 302 0.0 1.0 0.00 0.79 0.28 76 1013.8
20260507195153 69 302 0.0 1.0 0.00 0.79 0.28 76 1013.7
20260507194649 69 302 0.0 1.0 0.00 0.79 0.28 78 1013.8
20260507194147 69 302 0.0 0.0 0.00 0.79 0.28 76 1013.9
20260507193619 69 302 0.0 5.0 0.00 0.79 0.28 75 1013.9
20260507193116 69 302 0.0 5.0 0.00 0.79 0.28 78 1013.8
20260507192555 68 161 0.0 0.0 0.00 0.79 0.28 77 1013.8
20260507192028 68 161 0.0 4.0 0.00 0.79 0.28 79 1013.8
20260507191525 67 161 0.0 4.0 0.00 0.79 0.28 80 1013.8
20260507191027 67 161 0.0 0.0 0.00 0.79 0.28 80 1014.0
20260507190515 66 161 0.0 0.0 0.00 0.79 0.28 78 1014.0
20260507185959 66 161 0.0 0.0 0.00 0.79 0.28 80 1013.9
20260507185500 66 161 0.0 0.0 0.00 0.79 0.28 85 1014.0
20260507184957 65 161 0.0 0.0 0.00 0.79 0.28 83 1014.1
20260507184431 65 161 0.0 0.0 0.00 0.79 0.28 83 1014.2
20260507183425 65 161 0.0 2.0 0.00 0.79 0.28 84 1014.3
20260507181855 65 160 0.0 0.0 0.00 0.79 0.28 86 1014.7
20260507181322 65 160 0.0 0.0 0.00 0.79 0.28 86 1014.7
20260507180818 64 160 0.0 0.0 0.00 0.79 0.28 85 1014.7
20260507180252 64 160 0.0 0.0 0.00 0.79 0.28 87 1014.6
20260507175749 64 160 0.0 4.0 0.00 0.79 0.28 89 1014.7
20260507175240 64 160 0.0 4.0 0.00 0.79 0.28 88 1014.7
20260507174737 64 161 0.0 0.0 0.00 0.79 0.28 89 1014.7
20260507174211 63 161 0.0 0.0 0.00 0.79 0.28 91 1014.8
20260507173644 63 161 0.0 1.0 0.00 0.79 0.28 92 1014.8
20260507172638 62 161 0.0 0.0 0.00 0.79 0.28 94 1015.1
20260507172136 62 161 0.0 0.0 0.00 0.79 0.28 95 1015.1
20260507171609 61 161 0.0 0.0 0.00 0.79 0.28 95 1015.1
20260507171104 61 161 0.0 0.0 0.00 0.79 0.28 95 1015.0
20260507170618 61 161 0.0 0.0 0.00 0.79 0.28 96 1015.2
20260507170049 61 161 0.0 0.0 0.00 0.79 0.28 95 1015.2
20260507165508 61 161 0.0 0.0 0.00 0.79 0.28 96 1015.2
20260507164958 61 161 0.0 0.0 0.00 0.79 0.28 96 1015.3
20260507163952 61 161 0.0 1.0 0.00 0.79 0.28 97 1015.1
20260507163452 60 161 0.0 1.0 0.00 0.79 0.28 96 1015.1
20260507162926 60 196 0.0 0.0 0.00 0.79 0.28 97 1015.0
20260507162401 60 196 0.0 0.0 0.00 0.79 0.28 97 1014.8
20260507161903 60 196 0.0 0.0 0.00 0.79 0.28 97 1014.8
20260507161356 60 196 0.0 0.0 0.00 0.79 0.28 97 1014.9
20260507160853 61 196 0.0 0.0 0.00 0.79 0.28 97 1014.8
20260507160350 61 196 0.0 0.0 0.00 0.79 0.28 97 1014.7
20260507155854 61 196 0.0 0.0 0.00 0.79 0.28 97 1014.6
20260507155328 61 196 0.0 1.0 0.00 0.79 0.28 97 1014.6
20260507154822 61 196 0.0 1.0 0.00 0.79 0.28 97 1014.7
20260507154318 61 196 0.0 1.0 0.00 0.79 0.28 97 1014.6
20260507153227 62 213 0.0 1.0 0.00 0.79 0.28 98 1014.4
20260507152724 62 213 0.0 0.0 0.00 0.79 0.28 98 1014.3
20260507152223 62 213 0.0 0.0 0.00 0.79 0.28 98 1014.3
20260507151200 62 213 0.0 0.0 0.00 0.79 0.28 99 1014.2
20260507150638 62 213 0.0 0.0 0.00 0.79 0.28 99 1014.2
20260507150125 62 213 0.0 0.0 0.00 0.79 0.28 99 1014.1
20260507145622 62 213 0.0 0.0 0.00 0.79 0.28 99 1014.0
20260507145101 62 213 0.0 0.0 0.00 0.79 0.28 99 1014.0
20260507144058 62 213 0.0 0.0 0.00 0.79 0.28 99 1014.0
20260507143547 62 213 0.0 0.0 0.00 0.79 0.28 100 1013.9
20260507143045 61 213 0.0 0.0 0.00 0.79 0.28 100 1013.9
20260507142520 61 213 0.0 0.0 0.00 0.79 0.28 100 1014.1
20260507142004 61 213 0.0 0.0 0.00 0.79 0.28 100 1014.0
20260507141501 61 213 0.0 0.0 0.00 0.79 0.28 100 1014.2
20260507135915 61 213 0.0 0.0 0.00 0.79 0.28 100 1013.9
20260507135350 61 213 0.0 0.0 0.00 0.79 0.28 100 1013.6
20260507134824 61 213 0.0 0.0 0.00 0.79 0.28 100 1013.5
20260507133751 61 213 0.0 0.0 0.00 0.79 0.28 100 1013.7
20260507132746 61 213 0.0 0.0 0.00 0.79 0.28 100 1013.6
20260507132237 61 213 0.0 0.0 0.00 0.79 0.28 100 1013.4
20260507131736 61 213 0.0 0.0 0.00 0.79 0.28 100 1013.2
20260507131240 60 213 0.0 0.0 0.00 0.79 0.28 100 1013.3
20260507130206 60 213 0.0 0.0 0.00 0.79 0.28 100 1013.2
20260507125631 60 213 0.0 0.0 0.00 0.79 0.28 100 1012.9
20260507124601 60 213 0.0 1.0 0.00 0.79 0.28 100 1012.9
20260507124051 60 213 0.0 0.0 0.00 0.79 0.28 100 1012.9
20260507123548 60 245 0.0 0.0 0.00 0.79 0.28 100 1012.9
20260507122540 61 245 0.0 0.0 0.00 0.79 0.28 100 1012.6
20260507122019 60 245 0.0 0.0 0.00 0.79 0.28 100 1012.4
20260507121451 60 245 0.0 0.0 0.00 0.79 0.28 100 1012.3
20260507120949 60 245 0.0 0.0 0.00 0.79 0.28 100 1012.1
20260507120446 60 245 0.0 0.0 0.00 0.79 0.28 100 1011.7
20260507115927 60 245 0.0 0.0 0.00 0.79 0.28 100 1011.8
20260507115427 60 245 0.0 0.0 0.00 0.79 0.28 100 1011.8
20260507114927 60 245 0.0 0.0 0.00 0.79 0.28 100 1011.9
20260507114403 60 245 0.0 0.0 0.00 0.79 0.28 100 1011.9
20260507113838 60 245 0.0 0.0 0.00 0.79 0.28 100 1012.1
20260507112814 60 245 0.0 0.0 0.00 0.79 0.28 100 1011.8
20260507111811 60 245 0.0 0.0 0.00 0.79 0.28 100 1011.6
20260507111301 61 245 0.0 0.0 0.00 0.79 0.28 100 1011.6
20260507110800 61 245 0.0 0.0 0.00 0.79 0.28 100 1011.8
20260507110231 61 245 0.0 0.0 0.00 0.79 0.28 99 1011.8
20260507105728 61 245 0.0 0.0 0.00 0.79 0.28 99 1011.9
20260507105201 61 245 0.0 4.0 0.00 0.79 0.28 99 1012.0
20260507104658 62 245 0.0 4.0 0.00 0.79 0.28 99 1011.4
20260507104145 62 324 0.0 0.0 0.00 0.79 0.28 100 1011.3
20260507103644 62 324 0.0 0.0 0.01 0.79 0.28 100 1010.9
20260507103142 63 324 0.0 0.0 0.01 0.79 0.28 100 1010.9
20260507102102 63 324 0.0 0.0 0.01 0.79 0.28 100 1010.9
20260507101546 64 324 0.0 0.0 0.01 0.79 0.28 100 1010.8
20260507101027 64 324 0.0 0.0 0.01 0.79 0.28 100 1010.5
20260507100006 65 324 0.0 0.0 0.06 0.79 0.28 100 1010.2
20260507095439 65 324 0.0 0.0 0.08 0.79 0.28 100 1010.3
20260507094431 65 324 0.0 0.0 0.13 0.79 0.28 100 1010.3
20260507093901 65 324 0.0 0.0 0.15 0.79 0.28 100 1010.2
20260507093349 65 324 0.0 0.0 0.16 0.78 0.27 100 1010.2
20260507092848 65 324 0.0 0.0 0.16 0.78 0.27 100 1010.2
20260507092342 65 324 0.0 0.0 0.16 0.78 0.27 100 1010.3
20260507091828 65 324 0.0 0.0 0.16 0.78 0.27 100 1010.3
20260507091324 65 324 0.0 0.0 0.16 0.78 0.27 100 1010.2
20260507090811 65 324 0.0 0.0 0.15 0.77 0.26 100 1010.3
20260507090313 65 324 0.0 0.0 0.13 0.75 0.24 100 1010.1
20260507085801 65 324 0.0 0.0 0.11 0.73 0.22 100 1010.1
20260507085251 66 324 0.0 0.0 0.07 0.69 0.19 100 1010.0
20260507084746 66 324 0.0 0.0 0.06 0.67 0.16 100 1010.2
20260507084218 66 324 0.0 0.0 0.04 0.65 0.14 100 1010.3
20260507083722 66 324 0.0 0.0 0.02 0.63 0.12 100 1010.0
20260507083202 66 324 0.0 0.0 0.01 0.62 0.11 100 1010.1
20260507082159 66 324 0.0 0.0 0.05 0.62 0.11 100 1009.7
20260507081657 66 324 0.0 0.0 0.05 0.62 0.11 100 1009.7
20260507081129 66 324 0.0 0.0 0.05 0.62 0.11 100 1009.9
20260507080626 66 324 0.0 0.0 0.06 0.62 0.11 100 1010.0
20260507080106 66 324 0.0 0.0 0.07 0.62 0.11 100 1009.8
20260507075549 66 324 0.0 0.0 0.09 0.62 0.11 100 1009.7
20260507075045 66 324 0.0 0.0 0.09 0.62 0.11 100 1009.9
20260507074544 66 324 0.0 0.0 0.08 0.61 0.10 100 1010.0
20260507074040 66 324 0.0 0.0 0.08 0.61 0.10 100 1010.0
20260507073517 66 324 0.0 0.0 0.08 0.61 0.10 100 1010.1
20260507072952 67 324 0.0 0.0 0.07 0.60 0.09 100 1010.3
20260507072426 67 324 0.0 0.0 0.05 0.58 0.07 100 1009.9
20260507071902 67 324 0.0 0.0 0.04 0.57 0.06 100 1009.8
20260507071342 67 324 0.0 4.0 0.04 0.57 0.06 100 1009.8
20260507070314 67 324 1.0 5.0 0.02 0.55 0.04 100 1008.3
20260507065810 67 243 1.0 5.0 0.00 0.53 0.03 100 1008.7
20260507065234 67 213 0.0 1.0 0.00 0.53 0.02 100 1009.3
20260507064724 67 268 0.0 0.0 0.00 0.53 0.02 100 1010.5
20260507064224 67 268 0.0 0.0 0.00 0.53 0.02 100 1010.8
20260507063715 67 268 0.0 0.0 0.00 0.53 0.02 100 1010.8
20260507063220 67 268 0.0 2.0 0.01 0.53 0.02 100 1010.5
20260507062713 67 268 0.0 2.0 0.01 0.53 0.02 100 1010.6
20260507062215 67 211 0.0 0.0 0.01 0.53 0.02 100 1010.7
20260507061707 67 211 0.0 0.0 0.01 0.53 0.02 100 1011.1
20260507061207 67 211 0.0 0.0 0.02 0.53 0.02 100 1011.0
20260507060656 67 211 0.0 0.0 0.02 0.53 0.02 100 1011.2
20260507060154 67 211 0.0 0.0 0.02 0.53 0.02 100 1011.0
20260507055638 67 211 0.0 0.0 0.02 0.53 0.02 100 1011.1
20260507054536 67 211 0.0 0.0 0.02 0.53 0.02 99 1011.3
20260507054032 67 211 0.0 0.0 0.02 0.53 0.02 99 1011.5
20260507053514 67 211 0.0 0.0 0.02 0.53 0.02 99 1011.6
20260507052518 67 211 0.0 0.0 0.01 0.52 0.01 99 1011.6
20260507051934 67 211 0.0 0.0 0.01 0.52 0.01 99 1011.6
20260507051414 67 211 0.0 0.0 0.02 0.52 0.01 99 1011.7
20260507050914 67 211 0.0 0.0 0.01 0.51 0.00 99 1011.5
20260507050414 67 211 0.0 0.0 0.03 0.51 0.00 99 1011.5
20260507045911 67 211 0.0 0.0 0.05 0.51 0.51 99 1011.6
20260507045412 67 211 0.0 0.0 0.05 0.51 0.51 99 1011.2
20260507044846 67 211 0.0 0.0 0.06 0.51 0.51 99 1011.2
20260507044348 67 211 0.0 0.0 0.09 0.51 0.51 99 1011.1
20260507043816 67 211 0.0 0.0 0.11 0.51 0.51 99 1011.3
20260507043305 67 211 0.0 0.0 0.12 0.51 0.51 99 1011.4
20260507042805 67 211 0.0 0.0 0.12 0.51 0.51 99 1011.5
20260507042308 67 211 0.0 0.0 0.13 0.51 0.51 99 1011.6
20260507040726 67 211 0.0 0.0 0.13 0.49 0.49 99 1012.0
20260507040209 67 211 0.0 0.0 0.12 0.47 0.47 99 1010.9
20260507035702 67 211 0.0 0.0 0.13 0.46 0.46 99 1010.9
20260507035145 67 211 0.0 0.0 0.15 0.45 0.45 99 1011.1
20260507034612 67 211 0.0 0.0 0.16 0.43 0.44 99 1011.1
20260507034058 67 211 0.0 0.0 0.16 0.41 0.41 99 1011.3
20260507032537 68 211 0.0 4.0 0.15 0.39 0.39 99 1011.3
20260507032038 68 117 0.0 1.0 0.16 0.38 0.38 99 1011.5
20260507031426 68 117 0.0 0.0 0.18 0.38 0.38 98 1012.3
20260507030924 68 117 0.0 0.0 0.17 0.37 0.37 98 1012.7
20260507030422 68 117 0.0 0.0 0.17 0.36 0.36 98 1012.9
20260507025417 68 117 0.0 0.0 0.13 0.32 0.32 98 1012.4
20260507024916 68 117 0.0 0.0 0.09 0.28 0.29 98 1012.8
20260507024344 68 117 0.0 0.0 0.07 0.26 0.26 98 1012.6
20260507023842 68 117 0.0 0.0 0.05 0.24 0.24 98 1012.2
20260507023342 68 117 0.0 0.0 0.05 0.24 0.24 98 1012.1
20260507022309 69 117 0.0 0.0 0.04 0.23 0.23 98 1011.7
20260507021811 70 117 0.0 0.0 0.01 0.20 0.20 98 1011.6
20260507021251 70 117 0.0 0.0 0.01 0.20 0.20 98 1011.8
20260507020747 71 117 0.0 0.0 0.00 0.19 0.19 98 1011.5
20260507015216 72 117 0.0 0.0 0.00 0.19 0.19 99 1011.4
20260507014716 72 117 0.0 0.0 0.00 0.19 0.19 99 1011.3
20260507014214 72 117 0.0 0.0 0.00 0.19 0.19 99 1011.3
20260507013704 72 117 0.0 0.0 0.00 0.19 0.19 99 1011.2
20260507013201 72 117 0.0 0.0 0.00 0.19 0.19 99 1010.9
20260507012702 72 117 0.0 0.0 0.00 0.19 0.19 99 1010.8
20260507012137 72 117 0.0 0.0 0.00 0.19 0.19 99 1011.1
20260507011621 72 117 0.0 0.0 0.00 0.19 0.19 99 1010.8
20260507011122 72 117 0.0 0.0 0.00 0.19 0.19 99 1011.2
20260507010555 72 117 0.0 0.0 0.00 0.19 0.19 98 1010.8
20260507010106 72 117 0.0 0.0 0.00 0.19 0.19 98 1010.2
20260507005039 73 117 0.0 0.0 0.00 0.19 0.19 98 1010.7
20260507004021 73 117 0.0 0.0 0.00 0.19 0.19 98 1010.9
20260507003518 73 117 0.0 0.0 0.00 0.19 0.19 98 1011.2
20260507003015 73 117 0.0 0.0 0.00 0.19 0.19 98 1011.3
20260507002512 73 117 0.0 0.0 0.00 0.19 0.19 98 1010.7
20260507001443 73 117 0.0 0.0 0.00 0.19 0.19 98 1010.6
20260507000442 73 117 0.0 0.0 0.00 0.19 0.19 98 1011.1